Home > Weather > Grand Junction > Past weeks

Flag for USA Past Weather in Grand Junction, Colorado, USA — Yesterday and Last 2 Weeks

Now
69 °F

Clear.


Feels Like: 69 °F
Forecast: 51 / 83 °F
Wind: 5 mph from Southwest

Location: Walker Field

Current Time: May 31, 2016 at 11:34:52 PM

Latest Report: May 31, 2016 at 10:53 PM


Visibility: 10 mi

Pressure: 29.79 "Hg (25.32 "Hg at 1398m altitude)

Humidity: 23%

Dew Point: 30 °F

Location of Grand JunctionLocation

Past Weather in Grand Junction — Graph

°F

Grand Junction Temperature Yesterday

Maximum temperature yesterday: 79 °F (at 1:53 PM)
Minimum temperature yesterday: 47 °F (at 4:53 AM)
Average temperature yesterday: 65 °F

High & Low Weather Summary for the Past Weeks

 TemperatureHumidityPressure
High82 °F (May 31, 4:53 PM)96% (May 17, 4:53 AM)30.08 "Hg (May 17, 4:53 AM)
Low41 °F (May 23, 2:53 AM)9% (May 24, 4:53 PM)29.54 "Hg (May 21, 6:53 PM)
Average62 °F38%29.80 "Hg
* Reported May 16 9:53 PM — May 31 9:53 PM, Grand Junction, Weather by CustomWeather, © 2016

Note: Actual official high and low records may vary slightly from our data, if they occured in-between our weather recording intervals... More about our weather records

Advertising

Grand Junction Weather History for the Previous 24 Hours

Scroll right to see more
 ConditionsComfort  
Time TempWeatherWind HumidityBarometerVisibility
9:53 PM
Tue, May 31
71 °FClear.13 mph21%29.77 "Hg10 mi
8:53 PM71 °FSunny.8 mph24%29.76 "Hg10 mi
7:53 PM76 °FSunny.10 mph18%29.74 "Hg10 mi
6:53 PM79 °FSunny.15 mph18%29.74 "Hg10 mi
5:53 PM80 °FSunny.10 mph16%29.75 "Hg10 mi
4:53 PM82 °FScattered clouds.21 mph16%29.72 "Hg10 mi
3:53 PM81 °FSunny.10 mph16%29.74 "Hg10 mi
2:53 PM80 °FSunny.12 mph16%29.77 "Hg10 mi
1:53 PM78 °FSunny.3 mph17%29.80 "Hg10 mi
12:53 PM77 °FSunny.6 mph20%29.81 "Hg10 mi
11:53 AM74 °FSunny.N/A23%29.84 "Hg10 mi
10:53 AM71 °FSunny.8 mph26%29.85 "Hg10 mi
9:53 AM68 °FSunny.10 mph28%29.88 "Hg10 mi
8:53 AM64 °FSunny.9 mph35%29.89 "Hg10 mi
7:53 AM59 °FSunny.9 mph44%29.88 "Hg10 mi
6:53 AM54 °FSunny.7 mph51%29.88 "Hg10 mi
5:53 AM48 °FClear.7 mph61%29.89 "Hg10 mi
4:53 AM55 °FClear.9 mph45%29.87 "Hg10 mi
3:53 AM54 °FClear.3 mph49%29.85 "Hg10 mi
2:53 AM55 °FClear.6 mph47%29.84 "Hg10 mi
1:53 AM55 °FClear.5 mph45%29.84 "Hg10 mi
12:53 AM59 °FClear.8 mph39%29.83 "Hg10 mi
11:53 PM
Mon, May 30
58 °FClear.5 mph43%29.84 "Hg10 mi
Weather by CustomWeather, © 2016

See weather overviewHow to use our weather pages